This is the latest recevied weather packets stored in our database for station/object KB4MLW-13. If no packets are shown the sender has not sent any weather packets the latest 10 day(s).
| Time | Temp. | Humidity | Pressure | Rain* | Wind** | Luminosity | Snow |
|---|---|---|---|---|---|---|---|
| 1788206398 | 33.33° C | 59% | 1001.6 hPa | 0 mm | - | - | - |
| 1788206338 | 33.33° C | 57% | 1001.5 hPa | 0 mm | - | - | - |
| 1788206278 | 33.33° C | 55% | 1001.8 hPa | 0 mm | - | - | - |
| 1788206218 | 33.33° C | 57% | 1001.8 hPa | 0 mm | - | - | - |
| 1788206158 | 33.33° C | 59% | 1001.8 hPa | 0 mm | - | - | - |
| 1788206098 | 33.33° C | 60% | 1001.7 hPa | 0 mm | - | - | - |
| 1788206038 | 33.89° C | 59% | 1001.8 hPa | 0 mm | - | - | - |
| 1788205949 | 33.33° C | 61% | 1001.7 hPa | 0 mm | - | - | - |
| 1788205859 | 32.78° C | 60% | 1001.9 hPa | 0 mm | - | - | - |
| 1788205798 | 32.78° C | 60% | 1001.7 hPa | 0 mm | - | - | - |
| 1788205709 | 32.78° C | 57% | 1001.9 hPa | 0 mm | - | - | - |
| 1788205648 | 32.78° C | 57% | 1001.7 hPa | 0 mm | - | - | - |
| 1788205588 | 32.78° C | 60% | 1001.9 hPa | 0 mm | - | - | - |
| 1788205528 | 33.33° C | 59% | 1001.7 hPa | 0 mm | - | - | - |
| 1788205438 | 33.33° C | 60% | 1001.8 hPa | 0 mm | - | - | - |
| 1788205349 | 33.33° C | 59% | 1001.8 hPa | 0 mm | - | - | - |
| 1788205288 | 33.33° C | 57% | 1001.9 hPa | 0 mm | - | - | - |
| 1788205228 | 33.33° C | 57% | 1001.9 hPa | 0 mm | - | - | - |
| 1788205168 | 33.89° C | 57% | 1001.7 hPa | 0 mm | - | - | - |
| 1788205108 | 33.89° C | 57% | 1001.7 hPa | 0 mm | - | - | - |
| 1788205048 | 33.89° C | 57% | 1001.8 hPa | 0 mm | - | - | - |
| 1788204958 | 33.89° C | 58% | 1001.7 hPa | 0 mm | - | - | - |
| 1788204898 | 33.89° C | 57% | 1001.7 hPa | 0 mm | - | - | - |
| 1788204838 | 33.89° C | 58% | 1001.5 hPa | 0 mm | - | - | - |
| 1788204778 | 33.89° C | 59% | 1001.9 hPa | 0 mm | - | - | - |
* Rain latest hour (hover to see other rain measurements)
** Current wind speed in m/s (hover to see current wind gust speed)